Location: Unspecified
(50.1700°N, 6.8600°E)
Time: 01:07:44
(UTC+00:00)

Daily predictions for brighter satellites

Satellite Brightness Start Highest point End
(mag) Time Altitude Azimuth Time Altitude Azimuth Time Altitude Azimuth
IDEFIX/ARIANE 42P 4.5 03:16:04 10° NNE 03:18:50 26° NE 03:18:50 26° NE
Okean O Rocket 4.2 03:25:47 10° NE 03:28:46 17° E 03:29:50 16° ESE
Cosmos 2369 Rocket 3.2 03:44:46 42° NE 03:44:46 42° NE 03:48:31 10° NNE
CZ-2C R/B 4.2 03:38:52 10° NE 03:43:01 28° E 03:46:05 16° SE
Lacrosse 5 3.3 03:59:22 32° NNE 03:59:22 32° NNE 04:02:47 10° ENE
Lacrosse 4 Rocket 4.0 04:02:06 15° SE 04:02:06 15° SE 04:02:48 10° SE
ATLAS 5 CENTAUR R/B 3.0 04:02:56 81° NNE 04:02:56 81° NNE 04:15:39 10° NE
Lacrosse 5 rocket 3.0 04:06:52 34° E 04:06:52 34° E 04:09:57 10° ENE
COSMO-SKYMED 1 3.8 04:08:06 10° SE 04:11:11 39° ESE 04:11:11 39° ESE
Cosmos 2263 4.2 04:13:06 74° NE 04:13:06 74° NE 04:18:14 10° NNE
Cosmos 1943 Rocket 2.5 04:19:19 55° N 04:19:19 55° N 04:23:44 10° NNE
Cosmos 1302 Rocket 4.0 04:22:03 75° SE 04:22:03 75° SE 04:26:50 10° SSE
Cosmos 2278 Rocket 4.4 04:25:57 13° N 04:25:57 13° N 04:27:17 10° N
Cosmos 1634 Rocket 4.4 04:20:24 10° N 04:26:42 63° ENE 04:32:57 10° SSE
Cosmos 921 Rocket 3.6 04:28:22 50° ESE 04:28:22 50° ESE 04:31:42 10° SSE
Cosmos 2297 Rocket 3.9 04:24:45 14° N 04:28:35 28° NE 04:33:23 10° ESE
PAYLOAD A 4.0 04:24:42 10° NNE 04:28:42 62° NNE 04:28:42 62° NNE
CZ-4C R/B 3.4 04:31:04 31° NNW 04:31:04 31° NNW 04:36:53 10° NE
Exosat Rocket 4.0 04:41:43 27° NNW 04:44:39 68° ENE 04:51:03 10° SE
Cosmos 2219 3.7 04:41:58 22° NNW 04:45:37 57° NE 04:51:12 10° SE
MSX 3.7 04:40:01 10° NNE 04:45:47 78° WNW 04:51:30 10° SSW
CZ-4B R/B 3.3 04:40:27 10° NNE 04:45:53 75° ESE 04:51:11 10° S
RESURS DK-1 2.4 04:50:10 67° S 04:50:10 67° S 04:53:49 10° SSE
Genesis I 3.3 04:50:32 75° SSE 04:50:44 77° SE 04:54:51 10° NE
Cosmos 494 Rocket 3.9 04:54:15 56° W 04:54:49 60° WNW 04:59:59 10° NNE
Cosmos 1441 Rocket 3.4 04:52:19 10° S 04:56:17 75° E 05:00:13 10° NNE
PAYLOAD B 4.1 04:51:12 10° NNE 04:56:49 76° WNW 05:02:22 10° SSW
Geosat 4.2 04:52:53 10° SE 04:57:53 71° NE 05:01:04 23° NNW
USA 116 4.3 04:54:55 10° S 04:59:51 64° W 05:03:46 18° NNW
SKYMED 2 3.7 04:56:03 10° S 04:59:46 53° SW 04:59:46 53° SW
IDEFIX/ARIANE 42P 3.2 04:55:40 10° N 04:59:39 37° NW 04:59:39 37° NW
CZ-4B DEB 4.1 04:55:19 10° N 05:00:48 67° WNW 05:06:13 10° SSW
Cosmos 1656 Rocket 3.6 04:58:50 23° SW 05:02:31 79° WNW 05:08:13 10° NNE
Cosmos 1484 Rocket 3.4 04:58:38 10° NNE 05:02:37 59° E 05:06:32 10° S
Cosmos 1726 3.1 05:00:32 10° S 05:04:06 47° E 05:07:43 10° NNE
Okean O Rocket 1.5 05:01:08 10° N 05:05:32 62° WNW 05:07:18 34° SW
Cosmos 1992 Rocket 4.1 05:03:25 18° NNW 05:07:26 78° ENE 05:12:40 10° SSE
Cosmos 2346 Rocket 4.4 05:01:52 10° SSW 05:07:58 59° WNW 05:14:12 10° N
Okean-O 4.4 05:04:39 10° NNE 05:08:42 34° E 05:12:44 10° SSE
Cosmos 1812 Rocket 3.4 05:06:55 10° SSW 05:11:16 75° W 05:15:38 10° N
USA 81 4.4 05:11:18 40° W 05:11:38 40° WNW 05:16:36 10° N
DMSP B5D1-3 4.4 05:08:48 10° SSE 05:13:55 82° WSW 05:19:03 10° NNW
GRACE-FO 1 4.4 05:11:58 10° S 05:15:34 75° W 05:19:12 10° N
GRACE-FO 2 4.4 05:12:23 10° S 05:16:00 74° W 05:19:37 10° N
Cosmos 2227 Rocket 2.9 05:12:38 11° NNW 05:17:59 54° NE 05:23:33 10° SE
CZ-2C R/B 2.6 05:16:52 10° N 05:21:24 44° WNW 05:25:31 13° SW
CZ-2C R/B 3.7 05:16:57 10° SSE 05:21:43 87° W 05:26:26 10° NNW
Meteor 1-16 Rocket 4.2 05:17:44 10° SSW 05:23:25 59° WNW 05:28:56 10° N
Cosmos 2369 Rocket 3.1 05:26:34 27° WNW 05:27:26 28° NW 05:32:16 10° NNE
Cosmos 1076 Rocket 3.5 05:25:58 15° NNW 05:29:22 55° W 05:33:32 10° S
ERBS 3.7 05:33:32 24° NNW 05:34:05 25° N 05:36:55 10° NE
Cosmos 2180 Rocket 4.4 05:28:36 10° N 05:34:55 87° W 05:41:06 10° S
Lacrosse 4 Rocket 3.6 05:38:28 11° SW 05:38:28 11° SW 05:38:56 10° SW
Tsikada Rocket 4.5 05:33:00 10° SW 05:38:37 36° WNW 05:44:20 10° N
IRS-1C Rocket 4.0 05:33:24 10° NNE 05:38:41 71° WNW 05:43:55 10° SSW
ALOS 3.0 05:34:52 10° NNE 05:39:30 57° E 05:44:07 10° S
Cosmos 2251 Rocket 3.5 05:35:33 10° SW 05:40:45 63° WNW 05:45:59 10° NNE
Lacrosse 5 2.3 05:38:34 21° NW 05:41:47 56° NNE 05:46:46 10° ESE
Okean 3 Rocket 3.5 05:39:18 10° NNW 05:43:41 61° W 05:48:04 10° S
Cosmos 1908 3.1 05:40:18 10° SSW 05:44:04 59° WNW 05:47:52 10° N
Lacrosse 5 rocket 1.6 05:42:33 25° W 05:44:56 56° NNW 05:49:25 10° NE
Cosmos 1437 Rocket 2.7 05:41:30 10° NNW 05:45:32 87° ENE 05:49:27 10° SSE
Tiangong 2 3.3 05:44:40 14° SW 05:45:53 16° SSW 05:47:58 10° SSE
Cosmos 2084 3.2 05:45:35 23° NW 05:48:01 71° SW 05:51:58 10° SE
COSMO-SKYMED 1 3.9 05:45:26 10° SW 05:48:24 21° W 05:48:24 21° W
Cosmos 371 Rocket 3.4 05:44:45 13° NNW 05:49:00 54° WSW 05:53:44 10° S
Cosmos 1408 Rocket 3.7 05:46:45 10° N 05:51:15 82° E 05:55:41 10° SSE
Cosmos 1238 Rocket 3.8 05:50:40 23° WNW 05:51:40 26° W 05:55:16 10° SSW
Cosmos 2279 Rocket 4.1 05:46:15 10° NNW 05:52:17 55° W 05:58:17 10° SSW
Cosmos 1703 4.3 05:53:22 22° WNW 05:54:13 24° W 05:57:22 10° SW
Cosmos 2058 2.8 05:50:25 10° NNW 05:54:30 64° W 05:58:32 10° S
SJ-12 4.4 05:51:11 10° N 05:55:02 38° WNW 05:58:51 10° SW
Fregat R/B Cluster 11 4.0 05:55:05 10° SW 05:57:52 79° NW 06:05:10 10° NE
Meteor 2-1 Rocket 4.3 05:52:38 10° S 05:58:08 79° E 06:03:40 10° NNE
Cosmos 1300 3.0 05:56:03 10° S 05:59:51 70° E 06:03:40 10° NNE
Cosmos 1943 Rocket 3.5 06:00:51 16° WNW 06:02:55 19° NW 06:06:52 10° N
Cosmos 2263 Rocket 4.2 06:02:01 10° N 06:06:16 21° NE 06:10:29 10° E
Cosmos 1766 Rocket 3.7 06:03:03 10° NNW 06:07:25 53° W 06:11:45 10° S
Meteor 2-10 4.1 06:02:30 10° SSW 06:07:46 56° WNW 06:12:52 10° N
In-Cosmos 22 Rocket 4.2 06:03:59 10° N 06:09:20 82° ENE 06:14:41 10° SSE
Cosmos 1892 3.8 06:07:17 10° N 06:11:01 47° ENE 06:14:44 10° SSE
SMAP 3.1 06:07:43 10° NNE 06:12:25 89° WNW 06:17:04 10° SSW
Cosmos 2297 Rocket 2.2 06:07:30 10° NNW 06:13:08 69° WSW 06:18:44 10° SSE
FENGYUN 3A 3.6 06:10:14 10° NNE 06:15:40 82° WNW 06:21:05 10° SSW
Cosmos 405 Rocket 3.6 06:15:30 10° SW 06:18:47 27° WNW 06:22:03 10° N
MTI 3.8 06:17:19 10° SSE 06:20:29 83° ENE 06:23:42 10° NNW
Cosmos 1656 4.5 06:15:14 10° S 06:20:48 59° ESE 06:26:25 10° NE
CZ-4C R/B 3.9 06:16:19 10° NW 06:21:31 26° N 06:27:25 10° ENE
Meteor 1-4 Rocket 3.5 06:20:53 10° NNW 06:24:12 30° W 06:27:29 10° SSW
Cosmos 1743 Rocket 3.6 06:20:09 10° N 06:24:39 88° WSW 06:29:08 10° S
GEOS 3 Rocket 3.7 06:19:37 10° NE 06:24:49 83° SE 06:29:56 10° SW
CZ-4B R/B 4.3 06:21:53 10° N 06:25:54 22° NW 06:29:51 10° WSW
Cosmos 2219 4.1 06:24:39 10° NW 06:29:26 28° WSW 06:34:12 10° SSW
Cosmos 2151 3.4 06:27:18 10° NNW 06:31:16 41° W 06:35:12 10° SSW
METEOR-M 4.3 06:26:08 10° N 06:31:17 50° WNW 06:36:25 10° SW
H-2A R/B 2.9 06:31:52 10° NNE 06:35:34 74° E 06:39:17 10° S
Radarsat Rocket 4.5 06:30:35 10° N 06:36:13 42° WNW 06:42:23 10° SW
Iridium 2 4.3 06:32:45 10° NNW 06:36:15 36° W 06:39:42 10° SSW
Cosmos 1484 Rocket 4.4 06:34:03 10° NNW 06:36:38 17° WNW 06:39:11 10° W
Cosmos 1726 3.7 06:37:15 10° WSW 06:39:39 16° WNW 06:42:03 10° NNW
Ariane Rocket 4.3 06:35:46 10° NNE 06:40:42 46° E 06:45:35 10° S
Cosmos 389 Rocket 3.7 06:37:49 10° NW 06:40:43 24° W 06:43:35 10° SW
Okean O Rocket 3.6 06:40:26 10° NW 06:41:01 10° NW 06:41:37 10° WNW
ATLAS CENTAUR R/B 3.1 06:32:16 10° WSW 06:42:12 53° NNW 06:46:04 10° NE
CSL-04 Rocket 4.0 06:37:28 10° NNE 06:42:58 74° ESE 06:48:21 10° S
Cosmos-2242 3.8 06:40:28 10° SW 06:44:14 29° WNW 06:48:03 10° N
ASTEX 1 4.3 06:40:44 10° NNW 06:44:53 27° WNW 06:49:00 10° SW
Cosmos 2285 Rocket 4.1 06:38:44 10° SSW 06:45:02 90° WNW 06:51:23 10° NNE
Okean-O 3.3 06:41:13 10° N 06:45:08 32° WNW 06:49:04 10° SW
Cosmos 304 Rocket 4.3 06:40:47 10° NW 06:45:17 41° WSW 06:49:47 10° S
CORIOLIS 4.2 06:40:38 10° N 06:45:58 66° WNW 06:51:18 10° SSW
